Location: Newark
(40.7066°N, 111.8219°W)
Time: 00:39:35
(UTC+00:00)

Tiros 1 despin weight - All Passes

Search period start: 22 November 2019 00:00
Search period end: 02 December 2019 00:00
Orbit: 594 x 642 km, 48.2° (Epoch: 21 November)

Date Brightness Start Highest point End Pass type
(mag) Time Alt. Az. Time Alt. Az. Time Alt. Az.
22 Nov - 00:37:48 10° WNW 00:42:15 65° NNE 00:46:45 10° ESE visible
22 Nov - 02:19:42 10° WNW 02:23:35 29° SW 02:27:31 10° SSE visible
22 Nov - 18:07:45 10° SSW 18:11:24 25° SE 18:15:02 10° E daylight
22 Nov - 19:48:15 10° WSW 19:52:39 70° NNW 19:57:04 10° ENE daylight
22 Nov - 21:30:43 10° WNW 21:34:42 32° N 21:38:43 10° ENE daylight
22 Nov - 23:12:52 10° NW 23:17:01 37° NNE 23:21:12 10° E daylight
23 Nov - 00:54:23 10° WNW 00:58:51 77° SSW 01:03:22 10° SE visible
23 Nov - 02:37:16 10° W 02:39:52 15° SW 02:42:27 10° SSW visible
23 Nov - 18:23:31 10° SW 18:27:45 49° SE 18:32:01 10° ENE daylight
23 Nov - 20:05:06 10° W 20:09:21 46° NNW 20:13:37 10° NE daylight
23 Nov - 21:47:39 10° WNW 21:51:35 30° N 21:55:33 10° ENE daylight
23 Nov - 23:29:28 10° NW 23:33:47 51° NNE 23:38:10 10° E daylight
24 Nov - 01:11:06 10° WNW 01:15:19 42° SW 01:19:35 10° SSE visible
24 Nov - 17:00:16 10° S 17:03:11 17° SE 17:06:07 10° E daylight
24 Nov - 18:39:50 10° WSW 18:44:15 88° SSE 18:48:41 10° ENE daylight
24 Nov - 20:22:05 10° WNW 20:26:09 35° NNW 20:30:14 10° NE daylight
24 Nov - 22:04:26 10° WNW 22:08:28 33° N 22:12:32 10° ENE daylight
24 Nov - 23:46:00 10° WNW 23:50:28 79° NNE 23:54:57 10° ESE daylight
25 Nov - 01:28:11 10° W 01:31:39 22° SW 01:35:08 10° S visible
25 Nov - 17:15:30 10° SSW 17:19:29 33° SE 17:23:27 10° ENE daylight
25 Nov - 18:56:32 10° WSW 19:00:53 57° NNW 19:05:14 10° ENE daylight
25 Nov - 20:39:05 10° WNW 20:43:02 31° N 20:46:59 10° ENE daylight
25 Nov - 22:21:05 10° NW 22:25:18 41° NNE 22:29:33 10° E daylight
26 Nov - 00:02:37 10° WNW 00:07:00 60° SW 00:11:26 10° SE daylight
26 Nov - 01:46:44 10° WSW 01:47:52 11° SW 01:49:00 10° SW visible
26 Nov - 15:53:34 10° SSE 15:55:02 11° SE 15:56:28 10° ESE daylight
26 Nov - 17:31:32 10° SW 17:35:53 64° SE 17:40:16 10° ENE daylight
26 Nov - 19:13:27 10° W 19:17:37 40° NNW 19:21:49 10° NE daylight
26 Nov - 20:55:58 10° WNW 20:59:55 31° N 21:03:53 10° ENE daylight
26 Nov - 22:37:38 10° WNW 22:42:01 60° NNE 22:46:27 10° ESE daylight
27 Nov - 00:19:27 10° WNW 00:23:25 32° SW 00:27:24 10° SSE daylight
27 Nov - 16:07:44 10° S 16:11:14 23° SE 16:14:45 10° E daylight
27 Nov - 17:48:02 10° WSW 17:52:27 75° NNW 17:56:52 10° ENE daylight
27 Nov - 19:30:28 10° WNW 19:34:28 32° N 19:38:28 10° ENE daylight
27 Nov - 21:12:41 10° NW 21:16:46 36° NNE 21:20:53 10° E daylight
27 Nov - 22:54:12 10° WNW 22:58:39 84° SSW 23:03:07 10° SE daylight
28 Nov - 00:36:52 10° W 00:39:41 17° SW 00:42:32 10° S visible
28 Nov - 16:23:22 10° SW 16:27:35 44° SE 16:31:47 10° ENE daylight
28 Nov - 18:04:50 10° W 18:09:08 48° NNW 18:13:25 10° NE daylight
28 Nov - 19:47:25 10° WNW 19:51:21 30° N 19:55:17 10° ENE daylight
28 Nov - 21:29:17 10° NW 21:33:34 47° NNE 21:37:52 10° E daylight
28 Nov - 23:10:53 10° WNW 23:15:08 46° SW 23:19:24 10° SE daylight
29 Nov - 15:00:22 10° S 15:03:02 16° SE 15:05:43 10° E daylight
29 Nov - 16:39:37 10° SW 16:44:04 81° SSE 16:48:29 10° ENE daylight
29 Nov - 18:21:49 10° W 18:25:55 36° NNW 18:30:01 10° NE daylight
29 Nov - 20:04:14 10° WNW 20:08:14 32° N 20:12:14 10° ENE daylight
29 Nov - 21:45:49 10° WNW 21:50:14 73° NNE 21:54:42 10° ESE daylight
29 Nov - 23:27:54 10° W 23:31:29 24° SW 23:35:05 10° S daylight
30 Nov - 15:15:24 10° SSW 15:19:18 30° SE 15:23:12 10° ENE daylight
30 Nov - 16:56:16 10° WSW 17:00:40 61° NNW 17:05:02 10° ENE daylight
30 Nov - 18:38:49 10° WNW 18:42:46 31° N 18:46:43 10° ENE daylight
30 Nov - 20:20:54 10° NW 20:25:03 39° NNE 20:29:14 10° E daylight
30 Nov - 22:02:25 10° WNW 22:06:49 66° SSW 22:11:13 10° SE daylight
30 Nov - 23:45:59 10° WSW 23:47:42 12° SW 23:49:26 10° SSW daylight
01 Dec - 13:54:22 10° SE 13:54:53 10° SE 13:55:23 10° ESE visible
01 Dec - 15:31:20 10° SW 15:35:42 58° SE 15:40:03 10° ENE daylight
01 Dec - 17:13:10 10° W 17:17:23 42° NNW 17:21:36 10° NE daylight
01 Dec - 18:55:43 10° WNW 18:59:40 31° N 19:03:36 10° ENE daylight
01 Dec - 20:37:27 10° NW 20:41:49 56° NNE 20:46:10 10° ESE daylight
01 Dec - 22:19:13 10° WNW 22:23:14 35° SW 22:27:16 10° SSE daylight
